sat.trackr.live / text

‹ back to catalog

ANSER FOLLOWER 1

NORAD 58019 · 2023-155D

PAYLOAD ACTIVE UNKNOWN

§ Identity

Operator
Country
SPN
Launch date
2023-10-09
Launch site
FRGUI
Launch vehicle
Mass (kg)
RCS (m²)

External: N2YO · Heavens-Above · Gunter

§ Orbital elements

Epoch: 2026-05-25T04:41:42.679968Z

Period
93.24 min
Inclination
97.5549°
Eccentricity
0.0002440
Mean motion
15.44439288 rev/d
Perigee alt
431.4 km
Apogee alt
434.7 km
Semi-major
6,811.2 km
B*
1.1036e-3
RAAN
234.0034°
Arg perigee
140.7849°
Mean anomaly
219.3576°
Rev number
14,540

§ Raw data

ANSER FOLLOWER 11 58019U 23155D   26145.19563287  .00051232  00000+0  11036-2 0  99932 58019  97.5549 234.0034 0002440 140.7849 219.3576 15.44439288145408

JSON: /api/v1/satellites/58019 · /tle

For live sub-satellite position, see the globe view (requires WebGL).

§ Visibility from observer

Set your observer location to see the next 7 days of passes ≥ 10°. The values pass through the URL so the page stays shareable.

No JS? Fill the form by hand. The geolocation button needs JavaScript.